TimeEDT,TemperatureF,Dew PointF,Humidity,Sea Level PressureIn,VisibilityMPH,Wind Direction,Wind SpeedMPH,Gust SpeedMPH,PrecipitationIn,Events,Conditions,WindDirDegrees,DateUTC
12:53 AM,66.9,64.9,93,29.95,10.0,SSW,4.6,-,N/A,,Partly Cloudy,200,2013-08-03 04:53:00
1:53 AM,66.0,64.0,93,29.96,8.0,Calm,Calm,-,N/A,,Clear,0,2013-08-03 05:53:00
2:53 AM,66.0,64.0,93,29.95,4.0,Calm,Calm,-,N/A,,Partly Cloudy,0,2013-08-03 06:53:00
3:40 AM,64.4,64.4,100,29.95,2.0,Calm,Calm,-,0.00,Rain,Light Rain,0,2013-08-03 07:40:00
3:53 AM,66.0,64.0,93,29.94,2.5,Calm,Calm,-,0.00,Rain,Light Rain,0,2013-08-03 07:53:00
4:00 AM,64.4,64.4,100,29.94,1.8,Calm,Calm,-,0.00,Rain,Light Rain,0,2013-08-03 08:00:00
4:15 AM,64.4,62.6,94,29.95,1.8,North,3.5,-,0.00,,Overcast,350,2013-08-03 08:15:00
4:31 AM,66.2,64.4,94,29.96,2.0,Calm,Calm,-,0.00,,Overcast,0,2013-08-03 08:31:00
4:38 AM,66.2,64.4,94,29.96,2.5,Calm,Calm,-,0.00,,Overcast,0,2013-08-03 08:38:00
4:53 AM,66.0,64.0,93,29.95,2.5,Calm,Calm,-,0.00,,Overcast,0,2013-08-03 08:53:00
4:57 AM,66.2,64.4,94,29.96,1.8,Calm,Calm,-,N/A,,Overcast,0,2013-08-03 08:57:00
5:07 AM,66.2,64.4,94,29.96,0.2,Calm,Calm,-,N/A,Fog,Fog,0,2013-08-03 09:07:00
5:53 AM,64.9,64.0,97,29.96,0.5,Calm,Calm,-,N/A,Fog,Fog,0,2013-08-03 09:53:00
6:53 AM,64.9,64.0,97,29.98,0.8,NNW,3.5,-,0.01,,Overcast,330,2013-08-03 10:53:00
6:56 AM,64.4,64.4,100,29.98,1.2,NNW,3.5,-,N/A,,Overcast,330,2013-08-03 10:56:00
7:06 AM,66.2,64.4,94,29.98,1.8,North,4.6,-,N/A,,Overcast,350,2013-08-03 11:06:00
7:25 AM,66.2,64.4,94,29.98,2.0,NNW,3.5,-,N/A,,Overcast,340,2013-08-03 11:25:00
7:53 AM,66.9,64.9,93,29.98,2.0,Calm,Calm,-,N/A,,Mostly Cloudy,0,2013-08-03 11:53:00
8:05 AM,66.2,64.4,94,29.99,2.5,NNW,4.6,-,N/A,,Overcast,330,2013-08-03 12:05:00
8:18 AM,66.2,64.4,94,30.00,3.0,North,4.6,-,N/A,,Overcast,350,2013-08-03 12:18:00
8:38 AM,68.0,64.4,88,30.00,4.0,NNW,4.6,-,N/A,,Overcast,340,2013-08-03 12:38:00
8:53 AM,68.0,64.0,87,30.00,5.0,North,5.8,-,N/A,,Overcast,10,2013-08-03 12:53:00
9:09 AM,69.8,64.4,83,30.01,6.0,North,5.8,-,N/A,,Haze,360,2013-08-03 13:09:00
9:34 AM,69.8,64.4,83,30.01,8.0,Calm,Calm,-,N/A,,Scattered Clouds,0,2013-08-03 13:34:00
9:53 AM,71.1,63.0,75,30.00,10.0,ENE,3.5,-,N/A,,Partly Cloudy,60,2013-08-03 13:53:00
10:53 AM,73.0,62.1,68,30.00,10.0,ENE,4.6,-,N/A,,Clear,60,2013-08-03 14:53:00
11:53 AM,75.0,61.0,62,30.01,10.0,Calm,Calm,-,N/A,,Clear,0,2013-08-03 15:53:00
12:53 PM,78.1,55.9,46,30.01,10.0,NNE,4.6,-,N/A,,Partly Cloudy,30,2013-08-03 16:53:00
1:53 PM,77.0,57.9,52,30.01,10.0,NNW,5.8,-,N/A,,Mostly Cloudy,330,2013-08-03 17:53:00
2:53 PM,79.0,55.9,45,30.01,10.0,NNW,10.4,16.1,N/A,,Scattered Clouds,330,2013-08-03 18:53:00
3:53 PM,79.0,54.0,42,30.00,10.0,NNW,8.1,-,N/A,,Scattered Clouds,330,2013-08-03 19:53:00
4:53 PM,80.1,55.9,43,29.99,10.0,North,12.7,-,N/A,,Partly Cloudy,10,2013-08-03 20:53:00
5:53 PM,80.1,57.0,45,30.00,10.0,NNW,9.2,-,N/A,,Scattered Clouds,340,2013-08-03 21:53:00
6:53 PM,78.1,55.9,46,30.00,10.0,NNW,8.1,-,N/A,,Mostly Cloudy,340,2013-08-03 22:53:00
7:53 PM,75.0,55.9,51,30.01,10.0,NNW,9.2,-,N/A,,Partly Cloudy,340,2013-08-03 23:53:00
8:53 PM,69.1,55.9,63,30.02,10.0,NNW,3.5,-,N/A,,Clear,330,2013-08-04 00:53:00
9:53 PM,66.9,57.0,70,30.03,10.0,Calm,Calm,-,N/A,,Clear,0,2013-08-04 01:53:00
10:53 PM,64.0,55.0,73,30.04,10.0,NW,4.6,-,N/A,,Clear,310,2013-08-04 02:53:00
11:53 PM,64.0,54.0,70,30.05,10.0,Variable,3.5,-,N/A,,Clear,0,2013-08-04 03:53:00